Circle Line Brooklyn — WDE8160 — position and weather

sailwx.info

Track history (hours):
 
Tides and Currents Weather Stations Pressure Air Temp Water Temp Dewpoint Dewpoint Depression Visibility Wind Speed Wind Dir Waves Ship Positions

Circle Line Brooklyn

Owner: Circle Line Sight Seeing Yachts Inc., New York, NY. More information available from US FCC via Universal Licensing System and Coast Guard Vessel Documentation Center.

Last reported at 2014-Oct-24 22:08 UTC. Time now 2014-Oct-25 05:42 UTC.
Position N 40°46' W 074°00'.

; draft 2.4 m.

MMSI: 367402250.

Date/timePositionNaut miles runAvg speedWind from/ knotsBaromVisibWave heightAir tempDewpointWater temp
2014-Oct-24 22:08N 40°46' W 074°00'7 7.8
2014-Oct-24 21:17N 40°51' W 073°55'7 9.6
2014-Oct-24 20:33N 40°45' W 073°58'2 2.1
2014-Oct-24 19:33N 40°46' W 074°00'0 0.1
2014-Oct-24 18:33N 40°46' W 074°00'0 0.1
2014-Oct-24 17:34N 40°46' W 074°00'1 1.1
2014-Oct-24 16:29N 40°47' W 073°60'2 2.0
2014-Oct-24 15:19N 40°46' W 073°57'5 7.1
2014-Oct-24 14:33N 40°42' W 074°02'4 4.3
2014-Oct-24 13:32N 40°46' W 074°00'2 0.1
2014-Oct-23 23:33N 40°44' W 074°01'2 2.4
2014-Oct-23 22:34N 40°42' W 073°59'4 3.2
2014-Oct-23 21:29N 40°46' W 074°00'0 0.0
2014-Oct-23 20:32N 40°46' W 074°00'2 2.2
2014-Oct-23 19:33N 40°45' W 073°58'2 2.2
2014-Oct-23 18:33N 40°46' W 074°00'0 0.0
2014-Oct-23 17:33N 40°46' W 074°00'2 2.2
2014-Oct-23 16:33N 40°44' W 073°58'2 2.3
2014-Oct-23 15:34N 40°46' W 074°00'0 0.0
2014-Oct-23 14:33N 40°46' W 074°00'0 0.0
2014-Oct-21 21:16N 40°46' W 074°00'4 5.8
2014-Oct-21 20:34N 40°42' W 074°02'4 4.0
2014-Oct-21 19:32N 40°46' W 074°00'2 1.0
2014-Oct-21 17:33N 40°45' W 073°58'2 2.0
2014-Oct-21 16:33N 40°46' W 074°00'3 2.9
2014-Oct-21 15:33N 40°43' W 074°01'3 2.5
2014-Oct-21 14:21N 40°46' W 074°00'0 0.0
2014-Oct-21 13:24N 40°46' W 074°00'0 0.0
2014-Oct-20 22:20N 40°46' W 074°00'2 1.1
2014-Oct-20 20:33N 40°45' W 073°58'2 2.0
2014-Oct-20 19:33N 40°46' W 074°00'0 0.2
2014-Oct-20 18:33N 40°46' W 074°00'0 0.2
2014-Oct-20 17:33N 40°46' W 074°00'0 0.0
2014-Oct-20 16:32N 40°46' W 074°00'2 1.7
2014-Oct-20 15:13N 40°46' W 073°57'6 8.9
2014-Oct-20 14:34N 40°41' W 074°03'6 0.4
2014-Oct-19 21:33N 40°47' W 073°60'1 0.1
2014-Oct-19 13:11N 40°46' W 074°00'0 0.6
2014-Oct-19 12:25N 40°46' W 074°00'2 0.2
2014-Oct-18 21:33N 40°48' W 073°59'1 0.2
2014-Oct-18 13:16N 40°47' W 073°60'1 1.5
2014-Oct-18 12:33N 40°46' W 074°00'0 0.0
2014-Oct-18 11:33N 40°46' W 074°00'0 0.0
2014-Oct-17 22:09N 40°46' W 074°00'2 1.3
2014-Oct-17 20:31N 40°46' W 073°57'2 2.3
2014-Oct-17 19:33N 40°46' W 074°00'0 0.0
2014-Oct-17 18:33N 40°46' W 074°00'0 0.0
2014-Oct-17 17:34N 40°46' W 074°00'0 0.0
2014-Oct-17 16:34N 40°46' W 074°00'2 1.5
2014-Oct-17 15:08N 40°45' W 073°57'5 9.2
2014-Oct-17 14:33N 40°41' W 074°02'5 3.6
2014-Oct-17 13:15N 40°46' W 074°00'3 0.2
2014-Oct-16 23:34N 40°43' W 074°02'2 1.7
2014-Oct-16 22:33N 40°42' W 074°00'4 3.8
2014-Oct-16 21:33N 40°46' W 074°00'0 0.0
2014-Oct-16 20:33N 40°46' W 074°00'2 2.3
2014-Oct-16 19:33N 40°44' W 073°58'2 2.3
2014-Oct-16 18:33N 40°46' W 074°00'0 0.0
2014-Oct-16 17:31N 40°46' W 074°00'3 2.6
2014-Oct-16 16:33N 40°44' W 073°58'3 2.6
2014-Oct-16 15:33N 40°46' W 074°00'0 0.0
2014-Oct-16 14:31N 40°46' W 074°00'  
Track history (hours):
 
Tides and Currents Weather Stations Pressure Air Temp Water Temp Dewpoint Dewpoint Depression Visibility Wind Speed Wind Dir Waves Ship Positions

Circle Line Brooklyn

Owner: Circle Line Sight Seeing Yachts Inc., New York, NY. More information available from US FCC via Universal Licensing System and Coast Guard Vessel Documentation Center.

Last reported at 2014-Oct-24 22:08 UTC. Time now 2014-Oct-25 05:42 UTC.
Position N 40°46' W 074°00'.

; draft 2.4 m.

MMSI: 367402250.

Date/timePositionNaut miles runAvg speedWind from/ knotsBaromVisibWave heightAir tempDewpointWater temp
2014-Oct-24 22:08N 40°46' W 074°00'7 7.8
2014-Oct-24 21:17N 40°51' W 073°55'7 9.6
2014-Oct-24 20:33N 40°45' W 073°58'2 2.1
2014-Oct-24 19:33N 40°46' W 074°00'0 0.1
2014-Oct-24 18:33N 40°46' W 074°00'0 0.1
2014-Oct-24 17:34N 40°46' W 074°00'1 1.1
2014-Oct-24 16:29N 40°47' W 073°60'2 2.0
2014-Oct-24 15:19N 40°46' W 073°57'5 7.1
2014-Oct-24 14:33N 40°42' W 074°02'4 4.3
2014-Oct-24 13:32N 40°46' W 074°00'2 0.1
2014-Oct-23 23:33N 40°44' W 074°01'2 2.4
2014-Oct-23 22:34N 40°42' W 073°59'4 3.2
2014-Oct-23 21:29N 40°46' W 074°00'0 0.0
2014-Oct-23 20:32N 40°46' W 074°00'2 2.2
2014-Oct-23 19:33N 40°45' W 073°58'2 2.2
2014-Oct-23 18:33N 40°46' W 074°00'0 0.0
2014-Oct-23 17:33N 40°46' W 074°00'2 2.2
2014-Oct-23 16:33N 40°44' W 073°58'2 2.3
2014-Oct-23 15:34N 40°46' W 074°00'0 0.0
2014-Oct-23 14:33N 40°46' W 074°00'0 0.0
2014-Oct-21 21:16N 40°46' W 074°00'4 5.8
2014-Oct-21 20:34N 40°42' W 074°02'4 4.0
2014-Oct-21 19:32N 40°46' W 074°00'2 1.0
2014-Oct-21 17:33N 40°45' W 073°58'2 2.0
2014-Oct-21 16:33N 40°46' W 074°00'3 2.9
2014-Oct-21 15:33N 40°43' W 074°01'3 2.5
2014-Oct-21 14:21N 40°46' W 074°00'0 0.0
2014-Oct-21 13:24N 40°46' W 074°00'0 0.0
2014-Oct-20 22:20N 40°46' W 074°00'2 1.1
2014-Oct-20 20:33N 40°45' W 073°58'2 2.0
2014-Oct-20 19:33N 40°46' W 074°00'0 0.2
2014-Oct-20 18:33N 40°46' W 074°00'0 0.2
2014-Oct-20 17:33N 40°46' W 074°00'0 0.0
2014-Oct-20 16:32N 40°46' W 074°00'2 1.7
2014-Oct-20 15:13N 40°46' W 073°57'6 8.9
2014-Oct-20 14:34N 40°41' W 074°03'6 0.4
2014-Oct-19 21:33N 40°47' W 073°60'1 0.1
2014-Oct-19 13:11N 40°46' W 074°00'0 0.6
2014-Oct-19 12:25N 40°46' W 074°00'2 0.2
2014-Oct-18 21:33N 40°48' W 073°59'1 0.2
2014-Oct-18 13:16N 40°47' W 073°60'1 1.5
2014-Oct-18 12:33N 40°46' W 074°00'0 0.0
2014-Oct-18 11:33N 40°46' W 074°00'0 0.0
2014-Oct-17 22:09N 40°46' W 074°00'2 1.3
2014-Oct-17 20:31N 40°46' W 073°57'2 2.3
2014-Oct-17 19:33N 40°46' W 074°00'0 0.0
2014-Oct-17 18:33N 40°46' W 074°00'0 0.0
2014-Oct-17 17:34N 40°46' W 074°00'0 0.0
2014-Oct-17 16:34N 40°46' W 074°00'2 1.5
2014-Oct-17 15:08N 40°45' W 073°57'5 9.2
2014-Oct-17 14:33N 40°41' W 074°02'5 3.6
2014-Oct-17 13:15N 40°46' W 074°00'3 0.2
2014-Oct-16 23:34N 40°43' W 074°02'2 1.7
2014-Oct-16 22:33N 40°42' W 074°00'4 3.8
2014-Oct-16 21:33N 40°46' W 074°00'0 0.0
2014-Oct-16 20:33N 40°46' W 074°00'2 2.3
2014-Oct-16 19:33N 40°44' W 073°58'2 2.3
2014-Oct-16 18:33N 40°46' W 074°00'0 0.0
2014-Oct-16 17:31N 40°46' W 074°00'3 2.6
2014-Oct-16 16:33N 40°44' W 073°58'3 2.6
2014-Oct-16 15:33N 40°46' W 074°00'0 0.0
2014-Oct-16 14:31N 40°46' W 074°00'  

Dump ship's entire track history